Spokane, WA

9:26 AM PDT on August 27, 2016 (GMT -0700)
Spokane International

Weather History for KGEG - August, 2014

Change the Weather History Date:

Saturday, August 30, 2014

  Actual Average Record
Temperature  
Mean Temperature 64 °F 66 °F  
Max Temperature 74 °F 79 °F 98 °F (1929)
Min Temperature 53 °F 53 °F 38 °F (1965)
Degree Days  
Heating Degree Days 1 2  
Month to date heating degree days 2 31  
Since 1 June heating degree days 115 199  
Since 1 July heating degree days 9 63  
Cooling Degree Days 0 3  
Month to date cooling degree days 238 164  
Year to date cooling degree days 606 407  
Since 1 June cooling degree days 600 393  
Growing Degree Days 13 (Base 50)    
Moisture  
Dew Point 44 °F    
Average Humidity 59    
Maximum Humidity 86    
Minimum Humidity 31    
Precipitation  
Precipitation 0.00 in 0.02 in 0.72 in (1926)
Month to date precipitation 0.58 0.57  
Year to date precipitation 10.00 10.09  
Snow  
Snow 0.00 in 0.00 in 0.00 in (2002)
Month to date snowfall 0.0 0.0  
Since 1 June snowfall 0.0 0.0  
Since 1 July snowfall 0.0 0.0  
Snow Depth 0.00 in    
Sea Level Pressure  
Sea Level Pressure 29.82 in    
Wind  
Wind Speed 13 mph (SW)    
Max Wind Speed 22 mph    
Max Gust Speed 28 mph    
Visibility 10 miles    
Events      
T = Trace of Precipitation, MM = Missing Value Source: NWS Daily Summary

Daily Weather History Graph

Daily Weather History Graph

Search for Another Location

Airport or City:

Trip Planner

Search our weather history database for the weather conditions in past years. The results will help you decide how hot, cold, wet, or windy it might be!

Date:

Astronomy

Aug. 30, 2014 Rise Set
Actual Time 6:06 AM PDT 7:34 PM PDT
Civil Twilight 5:33 AM PDT 8:06 PM PDT
Nautical Twilight 4:54 AM PDT 8:45 PM PDT
Astronomical Twilight 4:12 AM PDT 9:27 PM PDT
Moon 11:21 AM PDT (8/30) 9:47 PM PDT (8/30)
Length of Visible Light 14h 32m
Length of Day
13h 28m
Waxing Crescent, 24% of the Moon is Illuminated
Aug 30
Waxing Crescent
Sep 2
First Quarter
Sep 8
Full
Sep 15
Last Quarter
Sep 23
New

Hourly Weather History & Observations

Time (PDT) Temp. Dew Point Humidity Pressure Visibility Wind Dir Wind Speed Gust Speed Precip Events Conditions
12:53 AM 60.8 °F 42.8 °F 52% 29.84 in 10.0 mi WSW 10.4 mph - N/A   Mostly Cloudy
1:53 AM 57.0 °F 42.1 °F 57% 29.81 in 10.0 mi WSW 8.1 mph - N/A   Scattered Clouds
2:53 AM 57.0 °F 43.0 °F 59% 29.80 in 10.0 mi SSW 6.9 mph - N/A   Partly Cloudy
3:53 AM 55.9 °F 43.0 °F 62% 29.82 in 10.0 mi SSW 11.5 mph - N/A   Mostly Cloudy
4:53 AM 55.0 °F 43.0 °F 64% 29.82 in 10.0 mi SSW 11.5 mph - N/A   Mostly Cloudy
5:53 AM 55.0 °F 44.1 °F 67% 29.84 in 10.0 mi SSW 12.7 mph - N/A   Overcast
6:53 AM 54.0 °F 44.1 °F 69% 29.85 in 10.0 mi South 9.2 mph - N/A   Scattered Clouds
7:53 AM 55.9 °F 45.0 °F 67% 29.85 in 10.0 mi SSW 9.2 mph - N/A   Partly Cloudy
8:53 AM 61.0 °F 45.0 °F 56% 29.85 in 10.0 mi WSW 9.2 mph - N/A   Scattered Clouds
9:53 AM 66.0 °F 44.1 °F 45% 29.85 in 10.0 mi SW 15.0 mph - N/A   Mostly Cloudy
10:53 AM 68.0 °F 44.1 °F 42% 29.85 in 10.0 mi SW 15.0 mph 23.0 mph N/A   Mostly Cloudy
11:53 AM 69.1 °F 44.1 °F 40% 29.84 in 10.0 mi SSW 17.3 mph 24.2 mph N/A   Mostly Cloudy
12:53 PM 70.0 °F 42.1 °F 36% 29.83 in 10.0 mi SSW 16.1 mph 20.7 mph N/A   Mostly Cloudy
1:53 PM 71.1 °F 41.0 °F 34% 29.83 in 10.0 mi WSW 11.5 mph 21.9 mph N/A   Mostly Cloudy
2:53 PM 72.0 °F 39.9 °F 31% 29.81 in 10.0 mi WSW 17.3 mph 26.5 mph N/A   Mostly Cloudy
3:53 PM 72.0 °F 39.9 °F 31% 29.80 in 10.0 mi WSW 19.6 mph 25.3 mph N/A   Mostly Cloudy
4:53 PM 72.0 °F 42.1 °F 34% 29.80 in 10.0 mi WSW 15.0 mph - N/A   Mostly Cloudy
5:53 PM 71.1 °F 42.1 °F 35% 29.79 in 10.0 mi WSW 16.1 mph - N/A   Mostly Cloudy
6:53 PM 70.0 °F 44.1 °F 39% 29.79 in 10.0 mi WSW 15.0 mph - N/A   Mostly Cloudy
7:53 PM 68.0 °F 44.6 °F 43% 29.83 in 10.0 mi WSW 13.8 mph - N/A   Mostly Cloudy
8:53 PM 64.9 °F 48.9 °F 56% 29.82 in 10.0 mi SSW 21.9 mph - N/A   Overcast
9:53 PM 60.1 °F 51.1 °F 72% 29.82 in 10.0 mi SSW 12.7 mph - N/A   Mostly Cloudy
10:53 PM 57.9 °F 53.1 °F 84% 29.82 in 10.0 mi SSW 16.1 mph - N/A   Mostly Cloudy
11:53 PM 59.0 °F 53.1 °F 81% 29.82 in 10.0 mi SSW 15.0 mph - N/A   Mostly Cloudy